Weather past 2 weeks in Mamoutzou, Mayotte

Now
88 °F

Passing clouds.


Feels Like: 100 °F
Forecast: 81 / 85 °F
Wind: 8 mph from South

Location: Dzaoudzi / Pamanzi Mayotte

Current Time: Mar 31, 2015 at 11:49:07 AM

Latest Report: Mar 31, 2015 at 11:00 AM


Visibility: N/A

Pressure: 29.89 "Hg

Humidity: 70%

Dew point: 77 °F

Location of MamoutzouLocation

Historic Weather in Mamoutzou — Graph

°F

Mamoutzou temperature yesterday

Maximum temperature yesterday: 88 °F (at 9:30 AM)
Minimum temperature yesterday: 77 °F (at 5:30 AM)
Average temperature yesterday: 84 °F

Past Weeks' High & Low Weather Summary

 TemperatureHumidityPressure
High90 °F (Mar 16, 11:34 AM)94% (Mar 21, 1:30 AM)30.01 "Hg (Mar 21, 1:30 AM)
Low75 °F (Mar 21, 8:04 AM)55% (Mar 28, 2:00 PM)29.83 "Hg (Mar 28, 2:30 PM)
Average84 °F78%29.91 "Hg
* Reported Mar 16 11:00 AM — Mar 31 11:00 AM, Mamoutzou, Weather by CustomWeather, © 2015

Note: Actual official high and low records may vary slightly from our data, if they occured in-between our weather recording intervals... More about our weather records

Advertising

Mamoutzou weather history for previous 24 hours

 ConditionsComfort  
Time TempWeatherWind HumidityBarometerVisibility
11:00 AM
Tue, Mar 31
88 °FPassing clouds.8 mph70%29.89 "HgN/A
10:30 AM88 °FPassing clouds.9 mph70%29.89 "HgN/A
10:00 AM88 °FPassing clouds.9 mph75%29.92 "HgN/A
9:30 AM88 °FPassing clouds.9 mph70%29.92 "HgN/A
9:00 AM86 °FPassing clouds.10 mph75%29.92 "HgN/A
8:30 AM86 °FScattered clouds.10 mph75%29.92 "HgN/A
8:00 AM84 °FScattered clouds.8 mph84%29.89 "HgN/A
7:30 AM84 °FScattered clouds.8 mph84%29.89 "HgN/A
7:00 AM82 °FPassing clouds.8 mph84%29.89 "HgN/A
6:30 AM82 °FPassing clouds.6 mph84%29.86 "HgN/A
6:00 AM82 °FPassing clouds.7 mph79%29.86 "HgN/A
5:30 AM82 °FClear.8 mph84%29.86 "Hg10 mi
5:00 AM82 °FClear.6 mph84%29.86 "Hg10 mi
4:30 AM82 °FPassing clouds.8 mph84%29.86 "HgN/A
4:00 AM82 °FPassing clouds.9 mph84%29.83 "HgN/A
3:30 AM82 °FWarm.9 mph84%29.83 "HgN/A
3:00 AM82 °FPassing clouds.8 mph84%29.83 "HgN/A
2:30 AM82 °FWarm.7 mph84%29.83 "HgN/A
2:00 AM82 °FPassing clouds.7 mph84%29.83 "HgN/A
1:30 AM82 °FPassing clouds.7 mph84%29.86 "HgN/A
1:00 AM82 °FPassing clouds.6 mph84%29.86 "HgN/A
12:30 AM82 °FWarm.6 mph84%29.86 "HgN/A
12:00 AM82 °FWarm.6 mph84%29.89 "HgN/A
11:30 PM
Mon, Mar 30
82 °FWarm.7 mph84%29.89 "HgN/A
11:00 PM84 °FWarm.7 mph79%29.89 "HgN/A
10:30 PM84 °FPassing clouds.8 mph79%29.89 "HgN/A
10:00 PM84 °FPassing clouds.9 mph79%29.89 "HgN/A
9:30 PM84 °FPassing clouds.10 mph79%29.89 "HgN/A
9:00 PM84 °FPassing clouds.10 mph74%29.89 "HgN/A
8:30 PM84 °FPassing clouds.9 mph74%29.89 "HgN/A
8:00 PM84 °FPassing clouds.9 mph74%29.89 "HgN/A
7:30 PM84 °FPassing clouds.9 mph74%29.89 "HgN/A
7:00 PM84 °FPassing clouds.9 mph74%29.86 "HgN/A
6:30 PM84 °FWarm.8 mph74%29.86 "HgN/A
6:00 PM84 °FScattered clouds.9 mph74%29.86 "HgN/A
5:30 PM84 °FScattered clouds.9 mph74%29.83 "HgN/A
5:00 PM86 °FScattered clouds.10 mph70%29.83 "HgN/A
4:30 PM88 °FScattered clouds.7 mph70%29.83 "HgN/A
4:00 PM88 °FScattered clouds.8 mph66%29.83 "HgN/A
3:30 PM88 °FScattered clouds.9 mph66%29.83 "HgN/A
2:30 PM88 °FScattered showers. Scattered clouds.10 mph70%29.83 "HgN/A
2:00 PM88 °FScattered clouds.9 mph70%29.83 "HgN/A
1:30 PM88 °FScattered showers. Passing clouds.9 mph66%29.86 "HgN/A
1:00 PM88 °FScattered showers. Scattered clouds.9 mph70%29.86 "HgN/A
12:30 PM88 °FScattered showers. Scattered clouds.8 mph66%29.86 "HgN/A
11:30 AM88 °FScattered clouds.9 mph70%29.89 "HgN/A
11:00 AM88 °FScattered clouds.7 mph70%29.92 "HgN/A
Weather by CustomWeather, © 2015

See weather overviewHow to use our weather pages